Time[GMT],current_speed[cm/s](2m),current_direction[angular_degrees](2m),temperature[C](2m),current_u[cm/s](2m),current_v[cm/s](2m)
2011-06-03 21:00,41.65,174.5,9.89,4.01,-41.46
2011-06-03 22:00,39.60,191.0,9.89,-7.55,-38.87
2011-06-03 23:00,30.80,220.5,9.77,-20.01,-23.41
2011-06-04 00:00,39.30,275.7,9.73,-39.11,3.93
2011-06-04 01:00,48.69,296.1,9.70,-43.71,21.44
2011-06-04 02:00,48.39,308.1,9.67,-38.09,29.85
2011-06-04 03:00,43.12,333.7,9.70,-19.07,38.67
2011-06-04 04:00,29.04,334.5,9.70,-12.52,26.20
2011-06-04 05:00,20.53,336.2,9.70,-8.28,18.79
2011-06-04 06:00,3.81,24.0,9.67,1.55,3.48
2011-06-04 07:00,11.44,174.5,9.67,1.10,-11.39
2011-06-04 08:00,21.70,133.3,9.67,15.79,-14.90
2011-06-04 09:00,22.88,132.3,9.67,16.93,-15.39
2011-06-04 10:00,19.94,130.9,9.67,15.08,-13.05
2011-06-04 11:00,16.42,142.5,9.67,10.00,-13.03
2011-06-04 12:00,14.08,142.5,9.73,8.57,-11.17
2011-06-04 13:00,5.57,154.1,9.77,2.44,-5.01
2011-06-04 14:00,13.79,254.3,9.77,-13.27,-3.73
2011-06-04 15:00,28.16,268.7,9.83,-28.15,-0.64
2011-06-04 16:00,34.61,261.7,9.96,-34.24,-5.01
2011-06-04 17:00,39.60,260.6,9.96,-39.07,-6.46
2011-06-04 18:00,46.05,280.0,9.89,-45.35,7.96
2011-06-04 19:00,38.13,266.6,10.21,-38.06,-2.27
2011-06-04 20:00,25.22,264.1,10.24,-25.09,-2.58
2011-06-04 21:00,24.64,255.0,10.27,-23.80,-6.38
2011-06-04 22:00,12.32,347.1,10.21,-2.76,12.01
2011-06-04 23:00,36.08,6.1,10.40,3.81,35.87
2011-06-05 00:00,47.22,23.6,10.46,18.93,43.26
2011-06-05 01:00,34.02,38.1,10.46,20.97,26.79
2011-06-05 02:00,22.58,46.1,10.11,16.28,15.65
2011-06-05 03:00,17.30,66.5,10.27,15.87,6.89
2011-06-05 04:00,10.27,134.4,10.30,7.34,-7.18
2011-06-05 05:00,12.91,184.0,10.24,-0.89,-12.87
2011-06-05 06:00,26.98,200.5,9.99,-9.45,-25.28
2011-06-05 07:00,40.77,193.1,10.21,-9.25,-39.71
2011-06-05 08:00,53.38,192.4,9.92,-11.47,-52.13
2011-06-05 09:00,48.98,196.3,9.83,-13.73,-47.02
2011-06-05 10:00,51.91,207.5,9.77,-23.99,-46.04
2011-06-05 11:00,49.57,226.2,9.86,-35.75,-34.33
2011-06-05 12:00,53.38,267.3,9.83,-53.32,-2.52
2011-06-05 13:00,53.38,320.0,9.83,-34.29,40.91
2011-06-05 14:00,53.38,346.0,9.83,-12.90,51.80
2011-06-05 15:00,53.97,353.4,9.73,-6.20,53.61
2011-06-05 16:00,41.06,355.9,10.02,-2.96,40.95
2011-06-05 17:00,39.89,1.1,10.24,0.79,39.88
2011-06-05 18:00,31.09,12.0,10.53,6.48,30.41
2011-06-05 19:00,17.01,76.4,10.56,16.53,4.01
2011-06-05 20:00,21.12,112.2,10.68,19.55,-7.99
2011-06-05 21:00,35.20,118.6,10.53,30.91,-16.83
2011-06-05 22:00,37.54,129.1,10.62,29.13,-23.69
2011-06-05 23:00,34.61,137.9,10.59,23.20,-25.68
2011-06-06 00:00,36.08,159.0,10.15,12.93,-33.68
2011-06-06 01:00,22.58,183.3,10.71,-1.29,-22.55
2011-06-06 02:00,22.58,216.3,10.68,-13.37,-18.20
2011-06-06 03:00,25.22,268.4,10.49,-25.21,-0.73
2011-06-06 04:00,28.16,283.1,10.49,-27.42,6.39
2011-06-06 05:00,33.14,286.3,10.43,-31.81,9.29
2011-06-06 06:00,28.16,263.1,10.49,-27.95,-3.39
2011-06-06 07:00,27.57,287.7,10.15,-26.27,8.38
2011-06-06 08:00,19.94,266.6,10.11,-19.91,-1.19
2011-06-06 09:00,5.28,149.9,10.18,2.65,-4.57
2011-06-06 10:00,7.63,156.5,10.18,3.04,-7.00
2011-06-06 11:00,7.63,77.1,10.08,7.43,1.71
2011-06-06 12:00,18.77,97.8,9.99,18.60,-2.56
2011-06-06 13:00,12.03,70.0,10.08,11.30,4.10
2011-06-06 14:00,10.56,54.2,10.18,8.57,6.17
2011-06-06 15:00,4.40,126.3,10.15,3.55,-2.60
2011-06-06 16:00,5.28,282.4,10.21,-5.16,1.14
2011-06-06 17:00,13.49,238.8,10.30,-11.54,-6.99
2011-06-06 18:00,17.30,237.1,10.37,-14.52,-9.41
2011-06-06 19:00,28.16,232.8,10.46,-22.44,-17.01
2011-06-06 20:00,31.09,237.1,10.59,-26.09,-16.91
2011-06-06 21:00,35.49,214.6,10.62,-20.13,-29.23
2011-06-06 22:00,36.08,233.2,10.65,-28.88,-21.61
2011-06-06 23:00,50.74,275.4,10.56,-50.52,4.76
2011-06-07 00:00,32.85,328.8,10.68,-17.00,28.11
2011-06-07 01:00,36.66,10.3,10.46,6.54,36.07
2011-06-07 02:00,41.65,32.4,10.40,22.33,35.15
2011-06-07 03:00,44.58,33.5,10.43,24.59,37.18
2011-06-07 04:00,36.08,41.2,10.40,23.77,27.14
2011-06-07 05:00,29.33,66.2,10.40,26.83,11.84
2011-06-07 06:00,26.10,100.6,10.68,25.66,-4.82
2011-06-07 07:00,19.94,126.0,10.62,16.15,-11.71
2011-06-07 08:00,27.86,155.1,10.75,11.72,-25.28
2011-06-07 09:00,41.65,156.5,10.71,16.58,-38.21
2011-06-07 10:00,46.93,168.5,10.62,9.36,-45.99
2011-06-07 11:00,59.25,181.2,10.53,-1.19,-59.23
2011-06-07 12:00,51.33,218.1,10.62,-31.65,-40.41
2011-06-07 13:00,32.56,238.1,10.43,-27.64,-17.20
2011-06-07 14:00,44.29,295.4,10.34,-40.00,19.01
2011-06-07 15:00,46.34,324.3,10.75,-27.07,37.61
2011-06-07 16:00,48.69,336.9,10.49,-19.09,44.79
2011-06-07 17:00,46.63,341.8,11.03,-14.54,44.31
2011-06-07 18:00,46.34,11.3,10.27,9.11,45.44
2011-06-07 19:00,26.40,357.3,10.81,-1.26,26.37
2011-06-07 20:00,24.34,8.5,10.87,3.61,24.08
2011-06-07 21:00,14.37,64.4,10.90,12.96,6.20
2011-06-07 22:00,22.88,111.5,11.00,21.28,-8.40
2011-06-07 23:00,29.04,120.3,10.90,25.06,-14.66
2011-06-08 00:00,30.21,128.4,11.00,23.67,-18.77
2011-06-08 01:00,30.50,134.7,11.06,21.67,-21.47
2011-06-08 02:00,25.22,137.2,11.13,17.14,-18.51
2011-06-08 03:00,18.18,132.3,11.25,13.45,-12.23
2011-06-08 04:00,8.80,162.9,11.28,2.59,-8.41
2011-06-08 05:00,9.39,266.6,11.25,-9.37,-0.56
2011-06-08 06:00,15.54,270.5,11.19,-15.54,0.12
2011-06-08 07:00,19.36,242.0,11.22,-17.09,-9.09
2011-06-08 08:00,24.64,230.0,11.16,-18.88,-15.83
2011-06-08 09:00,43.41,272.2,10.81,-43.38,1.68
2011-06-08 10:00,36.66,221.9,10.94,-24.50,-27.27
2011-06-08 11:00,32.56,234.9,10.65,-26.65,-18.70
2011-06-08 12:00,22.58,234.2,10.62,-18.33,-13.20
2011-06-08 13:00,23.76,329.2,10.59,-12.17,20.40
2011-06-08 14:00,22.58,24.0,10.62,9.18,20.63
2011-06-08 15:00,34.90,39.1,10.90,22.02,27.08
2011-06-08 16:00,40.48,44.4,11.57,28.31,28.93
2011-06-08 17:00,36.96,42.6,11.54,25.03,27.19
2011-06-08 18:00,36.08,59.1,11.44,30.97,18.50
2011-06-08 19:00,25.22,59.9,11.47,21.81,12.67
2011-06-08 20:00,11.15,133.3,11.44,8.11,-7.65
2011-06-08 21:00,14.37,159.4,11.06,5.07,-13.45
2011-06-08 22:00,35.20,162.2,11.31,10.78,-33.51
2011-06-08 23:00,42.82,168.1,11.50,8.80,-41.91
2011-06-09 00:00,45.46,177.3,11.54,2.15,-45.41
2011-06-09 01:00,41.94,192.4,11.54,-9.01,-40.96
2011-06-09 02:00,31.09,237.4,11.60,-26.19,-16.75
2011-06-09 03:00,43.12,297.9,11.28,-38.11,20.16
2011-06-09 04:00,39.01,338.3,11.16,-14.41,36.25
2011-06-09 05:00,49.27,346.4,11.13,-11.61,47.89
2011-06-09 06:00,48.39,0.8,11.25,0.66,48.39
2011-06-09 07:00,40.48,12.7,11.25,8.92,39.48
2011-06-09 08:00,12.61,347.8,11.25,-2.67,12.33
2011-06-09 09:00,21.12,27.9,11.22,9.87,18.67
2011-06-09 10:00,4.40,94.7,11.25,4.38,-0.36
2011-06-09 11:00,15.84,102.7,11.19,15.45,-3.49
2011-06-09 12:00,25.81,129.1,11.09,20.03,-16.28
2011-06-09 13:00,23.17,143.5,11.03,13.77,-18.63
2011-06-09 14:00,29.92,147.0,11.25,16.27,-25.10
2011-06-09 15:00,19.06,148.8,11.50,9.87,-16.31
2011-06-09 16:00,9.09,223.0,11.60,-6.20,-6.65
2011-06-09 17:00,5.87,306.0,11.60,-4.75,3.45
2011-06-09 18:00,12.61,349.9,11.54,-2.22,12.42
2011-06-09 19:00,17.60,336.2,11.54,-7.10,16.10
2011-06-09 20:00,22.29,278.9,12.45,-22.02,3.45
2011-06-09 21:00,26.40,259.6,12.42,-25.96,-4.78
2011-06-09 22:00,35.20,294.7,11.76,-31.97,14.72
2011-06-09 23:00,17.60,218.1,11.50,-10.85,-13.85
2011-06-10 00:00,20.53,197.3,11.16,-6.11,-19.60
2011-06-10 01:00,10.27,224.8,11.13,-7.23,-7.29
2011-06-10 02:00,8.21,275.4,11.16,-8.18,0.77
2011-06-10 03:00,11.15,341.1,11.31,-3.60,10.55
2011-06-10 04:00,24.64,44.0,11.47,17.12,17.71
2011-06-10 05:00,19.94,23.6,11.50,8.00,18.27
2011-06-10 06:00,18.18,45.1,11.63,12.88,12.84
2011-06-10 07:00,7.33,69.0,11.63,6.85,2.63
2011-06-10 08:00,4.69,144.2,11.50,2.74,-3.81
2011-06-10 09:00,18.48,180.8,11.41,-0.26,-18.48
2011-06-10 10:00,19.36,166.7,11.09,4.44,-18.84
2011-06-10 11:00,28.16,198.4,11.09,-8.88,-26.72
2011-06-10 12:00,53.09,193.8,11.47,-12.67,-51.55
2011-06-10 13:00,59.54,207.9,11.60,-27.84,-52.63
2011-06-10 14:00,60.13,210.0,11.60,-30.05,-52.08
2011-06-10 15:00,60.42,250.4,11.69,-56.93,-20.25
2011-06-10 16:00,51.62,281.7,11.79,-50.55,10.48
2011-06-10 17:00,39.60,311.2,11.88,-29.77,26.11
2011-06-10 18:00,45.75,338.0,12.01,-17.16,42.41
2011-06-10 19:00,53.97,353.0,11.88,-6.53,53.57
2011-06-10 20:00,48.69,356.2,12.10,-3.22,48.58
2011-06-10 21:00,27.28,18.0,12.07,8.43,25.94
2011-06-10 22:00,19.65,33.1,12.10,10.74,16.46
2011-06-10 23:00,19.06,86.6,11.60,19.03,1.14
2011-06-11 00:00,27.86,118.2,11.66,24.55,-13.17
2011-06-11 01:00,40.77,136.9,11.69,27.88,-29.74
2011-06-11 02:00,46.05,150.9,12.51,22.38,-40.24
2011-06-11 03:00,51.91,163.6,12.23,14.68,-49.80
2011-06-11 04:00,43.99,182.9,12.67,-2.24,-43.94
2011-06-11 05:00,38.42,214.6,12.23,-21.79,-31.64
2011-06-11 06:00,27.86,258.2,12.20,-27.27,-5.72
2011-06-11 07:00,25.22,286.3,12.35,-24.21,7.07
2011-06-11 08:00,30.80,293.7,12.39,-28.21,12.36
2011-06-11 09:00,34.61,288.0,12.54,-32.91,10.72
2011-06-11 10:00,32.26,276.8,12.42,-32.04,3.81
2011-06-11 11:00,50.15,282.4,12.32,-48.98,10.78
2011-06-11 12:00,30.80,257.5,12.10,-30.06,-6.69
2011-06-11 13:00,14.66,280.0,11.85,-14.44,2.53
2011-06-11 14:00,24.34,295.1,12.57,-22.05,10.32
2011-06-11 15:00,7.63,343.6,12.61,-2.16,7.31
2011-06-11 16:00,20.53,9.6,12.64,3.41,20.25
2011-06-11 17:00,31.09,31.0,12.57,16.02,26.64
2011-06-11 18:00,29.92,49.0,12.26,22.56,19.65
2011-06-11 19:00,25.22,57.7,12.04,21.33,13.46
2011-06-11 20:00,28.45,56.7,12.51,23.78,15.62
2011-06-11 21:00,17.01,86.2,12.29,16.97,1.12
2011-06-11 22:00,12.61,132.6,12.29,9.28,-8.54
2011-06-11 23:00,12.61,176.9,12.20,0.67,-12.59
2011-06-12 00:00,16.42,237.8,11.82,-13.89,-8.76
2011-06-12 01:00,42.82,193.5,12.07,-9.97,-41.65
2011-06-12 02:00,52.79,197.0,12.17,-15.41,-50.49
2011-06-12 03:00,46.63,197.0,12.29,-13.62,-44.60
2011-06-12 04:00,50.74,227.2,12.35,-37.24,-34.47
2011-06-12 05:00,31.38,251.8,12.29,-29.82,-9.79
2011-06-12 06:00,26.40,322.5,12.32,-16.07,20.94
2011-06-12 07:00,38.42,338.3,12.26,-14.19,35.70
2011-06-12 08:00,46.93,342.2,12.01,-14.36,44.68
2011-06-12 09:00,56.02,0.1,12.01,0.08,56.02
2011-06-12 10:00,47.81,6.8,11.79,5.63,47.48
2011-06-12 11:00,39.60,19.4,11.54,13.16,37.34
2011-06-12 12:00,24.64,22.2,11.66,9.32,22.81
2011-06-12 13:00,11.15,56.3,11.57,9.28,6.18
2011-06-12 14:00,20.82,135.1,11.60,14.70,-14.75
2011-06-12 15:00,32.85,161.1,11.60,10.63,-31.08
2011-06-12 16:00,37.54,174.1,11.47,3.84,-37.35
2011-06-12 17:00,39.60,208.9,11.44,-19.15,-34.65
2011-06-12 18:00,32.85,249.4,11.47,-30.74,-11.58
2011-06-12 19:00,38.72,284.5,11.60,-37.48,9.71
2011-06-12 20:00,44.87,300.0,11.47,-38.86,22.43
2011-06-12 21:00,68.05,315.8,11.47,-47.42,48.80
2011-06-12 22:00,73.62,322.1,11.38,-45.18,58.13
2011-06-12 23:00,61.30,327.4,11.09,-33.01,51.65
2011-06-13 00:00,41.94,335.2,11.38,-17.62,38.06
2011-06-13 01:00,21.70,338.7,11.25,-7.89,20.22
2011-06-13 02:00,13.20,306.0,11.22,-10.68,7.75
2011-06-13 03:00,9.09,150.9,11.09,4.42,-7.95
2011-06-13 04:00,4.69,149.5,11.13,2.38,-4.04
2011-06-13 05:00,15.84,117.5,11.16,14.05,-7.32
2011-06-13 06:00,20.82,108.7,11.19,19.72,-6.68
2011-06-13 07:00,25.22,112.9,11.19,23.23,-9.83
2011-06-13 08:00,17.89,109.8,11.25,16.84,-6.05
2011-06-13 09:00,7.04,126.3,11.19,5.67,-4.17
2011-06-13 10:00,17.30,195.6,11.19,-4.64,-16.67
2011-06-13 11:00,23.76,237.4,11.16,-20.02,-12.80
2011-06-13 12:00,38.42,233.5,11.22,-30.90,-22.83
2011-06-13 13:00,52.50,230.0,11.31,-40.23,-33.73
2011-06-13 14:00,52.21,226.5,11.22,-37.88,-35.93
2011-06-13 15:00,54.85,231.4,11.06,-42.88,-34.19
2011-06-13 16:00,52.79,232.1,11.09,-41.68,-32.40
2011-06-13 17:00,46.05,245.8,11.22,-42.02,-18.84
2011-06-13 18:00,31.97,268.0,11.28,-31.95,-1.12
2011-06-13 19:00,31.97,310.2,11.31,-24.42,20.63
2011-06-13 20:00,32.56,341.1,11.22,-10.53,30.81
2011-06-13 21:00,34.90,359.4,11.09,-0.38,34.90
2011-06-13 22:00,33.44,8.2,11.03,4.75,33.10
2011-06-13 23:00,24.34,6.4,11.00,2.72,24.19
2011-06-14 00:00,8.51,4.3,10.87,0.64,8.48
2011-06-14 01:00,7.92,200.5,10.84,-2.77,-7.42
2011-06-14 02:00,21.12,189.6,10.87,-3.52,-20.82
2011-06-14 03:00,44.29,183.6,10.90,-2.79,-44.20
2011-06-14 04:00,57.49,185.4,10.97,-5.38,-57.23
2011-06-14 05:00,63.94,203.7,11.03,-25.66,-58.57
2011-06-14 06:00,59.83,225.1,11.13,-42.39,-42.23
2011-06-14 07:00,41.36,239.2,11.13,-35.51,-21.20
2011-06-14 08:00,31.38,296.8,11.16,-28.00,14.16
2011-06-14 09:00,34.32,310.2,11.16,-26.21,22.15
2011-06-14 10:00,59.25,326.7,11.13,-32.51,49.53
2011-06-14 11:00,37.84,335.5,11.06,-15.69,34.43
2011-06-14 12:00,42.82,329.9,10.97,-21.49,37.04
2011-06-14 13:00,37.25,336.6,10.94,-14.82,34.18
2011-06-14 14:00,7.63,345.7,10.90,-1.89,7.39
2011-06-14 15:00,7.33,160.4,10.90,2.46,-6.91
2011-06-14 16:00,17.30,179.7,10.87,0.08,-17.30
2011-06-14 17:00,30.50,180.5,10.90,-0.24,-30.50
2011-06-14 18:00,36.37,173.1,10.87,4.39,-36.10
2011-06-14 19:00,28.74,195.6,10.84,-7.71,-27.69
2011-06-14 20:00,23.46,199.8,10.97,-7.94,-22.08
2011-06-14 21:00,12.32,211.4,10.97,-6.42,-10.52
2011-06-14 22:00,14.96,282.1,10.97,-14.63,3.13
2011-06-14 23:00,15.84,274.7,10.94,-15.79,1.29
2011-06-15 00:00,31.09,296.5,10.87,-27.83,13.86
2011-06-15 01:00,24.34,284.2,10.90,-23.60,5.96
2011-06-15 02:00,26.10,232.1,10.94,-20.61,-16.02
2011-06-15 03:00,41.94,205.1,10.87,-17.77,-37.99
2011-06-15 04:00,50.74,213.5,10.71,-28.01,-42.31
2011-06-15 05:00,55.73,213.1,10.59,-30.47,-46.66
2011-06-15 06:00,56.90,222.3,10.46,-38.29,-42.09
2011-06-15 07:00,40.77,237.4,10.49,-34.35,-21.96
2011-06-15 08:00,22.88,244.4,10.53,-20.64,-9.87
2011-06-15 09:00,9.09,267.3,10.53,-9.08,-0.43
2011-06-15 10:00,6.16,359.0,10.49,-0.10,6.16
2011-06-15 11:00,15.25,349.9,10.53,-2.68,15.01
2011-06-15 12:00,14.08,9.2,10.56,2.26,13.90
2011-06-15 13:00,7.92,183.3,10.53,-0.45,-7.91
2011-06-15 14:00,15.84,199.1,10.53,-5.18,-14.97
2011-06-15 15:00,41.94,202.2,10.53,-15.88,-38.82
2011-06-15 16:00,52.21,206.5,10.46,-23.27,-46.73
2011-06-15 17:00,59.25,203.3,10.49,-23.44,-54.41
2011-06-15 18:00,68.05,208.2,10.56,-32.18,-59.95
2011-06-15 19:00,50.15,230.0,10.62,-38.44,-32.22
2011-06-15 20:00,43.41,243.7,10.68,-38.93,-19.21
2011-06-15 21:00,27.86,258.2,10.65,-27.27,-5.72
2011-06-15 22:00,29.04,299.6,10.59,-25.24,14.36
2011-06-15 23:00,23.46,352.3,10.40,-3.13,23.25
2011-06-16 00:00,22.00,25.7,9.42,9.56,19.81
2011-06-16 01:00,16.72,26.8,9.20,7.54,14.92
2011-06-16 02:00,18.18,81.7,9.23,17.99,2.64
2011-06-16 03:00,14.37,152.3,9.29,6.68,-12.73
2011-06-16 04:00,39.89,169.9,9.48,6.99,-39.27
2011-06-16 05:00,53.97,168.1,10.11,11.09,-52.82
2011-06-16 06:00,61.30,168.5,10.53,12.22,-60.07
2011-06-16 07:00,70.10,169.6,10.62,12.71,-68.94
2011-06-16 08:00,58.95,170.3,10.53,9.98,-58.10
2011-06-16 09:00,53.38,167.8,10.46,11.29,-52.17
2011-06-16 10:00,22.29,179.7,10.46,0.10,-22.29
2011-06-16 11:00,14.66,265.9,10.46,-14.63,-1.05
2011-06-16 12:00,27.86,289.4,10.46,-26.27,9.28
2011-06-16 13:00,41.06,319.0,10.65,-26.95,30.98
2011-06-16 14:00,30.21,316.2,10.81,-20.92,21.79
2011-06-16 15:00,17.89,320.7,10.87,-11.32,13.85
2011-06-16 16:00,12.03,258.5,10.90,-11.78,-2.40
2011-06-16 17:00,8.80,248.7,11.13,-8.20,-3.20
2011-06-16 18:00,22.88,178.0,11.03,0.80,-22.86
2011-06-16 19:00,25.52,145.3,11.03,14.53,-20.98
2011-06-16 20:00,23.46,137.6,11.16,15.84,-17.31
2011-06-16 21:00,18.48,125.6,11.16,15.02,-10.76
2011-06-16 22:00,30.21,93.6,11.91,30.15,-1.90
2011-06-16 23:00,21.41,82.7,11.31,21.24,2.72
2011-06-17 00:00,26.40,94.7,11.03,26.31,-2.14
2011-06-17 01:00,3.52,62.7,11.03,3.13,1.62
2011-06-17 02:00,9.09,181.5,11.31,-0.24,-9.09
2011-06-17 03:00,9.68,275.4,12.13,-9.64,0.91
2011-06-17 04:00,18.48,215.3,11.50,-10.67,-15.09
2011-06-17 05:00,18.77,221.6,11.82,-12.46,-14.04
2011-06-17 06:00,20.24,200.8,11.76,-7.20,-18.91
2011-06-17 07:00,18.77,171.0,11.38,2.95,-18.54
2011-06-17 08:00,29.62,164.3,11.13,8.03,-28.51
2011-06-17 09:00,9.39,212.4,11.06,-5.04,-7.92
2011-06-17 10:00,9.39,27.9,11.03,4.39,8.30
2011-06-17 11:00,31.09,49.3,11.09,23.57,20.27
2011-06-17 12:00,39.60,60.9,11.09,34.60,19.25
2011-06-17 13:00,44.58,50.4,11.16,34.33,28.44
2011-06-17 14:00,46.34,56.0,11.16,38.41,25.92
2011-06-17 15:00,38.42,83.8,11.25,38.19,4.18
2011-06-17 16:00,40.18,110.1,11.38,37.73,-13.83
2011-06-17 17:00,41.94,133.3,11.54,30.51,-28.78
2011-06-17 18:00,51.91,154.4,11.63,22.40,-46.83
2011-06-17 19:00,56.90,158.7,11.66,20.71,-53.00
2011-06-17 20:00,43.12,162.9,11.79,12.70,-41.20
2011-06-17 21:00,47.81,157.2,11.69,18.49,-44.09
2011-06-17 22:00,24.64,168.1,11.88,5.06,-24.11
2011-06-17 23:00,9.97,220.2,11.94,-6.43,-7.62
2011-06-18 00:00,24.64,352.0,11.85,-3.43,24.40
2011-06-18 01:00,42.24,5.7,11.57,4.20,42.03
2011-06-18 02:00,38.72,3.2,11.66,2.19,38.65
2011-06-18 03:00,45.75,13.1,11.60,10.36,44.57
2011-06-18 04:00,31.38,13.8,11.54,7.48,30.48
2011-06-18 05:00,22.29,32.8,11.60,12.07,18.74
2011-06-18 06:00,16.42,65.5,11.54,14.94,6.82
2011-06-18 07:00,28.45,120.0,11.47,24.64,-14.21
2011-06-18 08:00,35.49,118.9,11.41,31.06,-17.16
2011-06-18 09:00,48.98,121.7,11.47,41.66,-25.76
2011-06-18 10:00,48.10,134.7,11.50,34.17,-33.86
2011-06-18 11:00,35.78,126.3,11.57,28.84,-21.19
2011-06-18 12:00,17.01,126.0,11.35,13.77,-9.99
2011-06-18 13:00,11.15,59.5,11.41,9.60,5.66
2011-06-18 14:00,18.18,15.9,11.38,4.98,17.49
2011-06-18 15:00,13.20,333.0,11.38,-5.98,11.76
2011-06-18 16:00,25.22,342.5,11.47,-7.58,24.06
2011-06-18 17:00,10.85,336.9,11.60,-4.26,9.98
2011-06-18 18:00,2.64,198.0,11.66,-0.82,-2.51
2011-06-18 19:00,12.03,152.7,11.66,5.52,-10.68
2011-06-18 20:00,18.48,137.9,11.60,12.39,-13.71
2011-06-18 21:00,36.37,119.3,11.54,31.73,-17.78
2011-06-18 22:00,31.68,98.5,11.57,31.33,-4.70
2011-06-18 23:00,30.21,69.7,11.60,28.33,10.48
2011-06-19 00:00,40.77,78.8,11.63,40.00,7.89
2011-06-19 01:00,31.38,83.8,11.63,31.20,3.41
2011-06-19 02:00,29.33,99.2,11.76,28.95,-4.71
2011-06-19 03:00,20.24,105.2,11.76,19.53,-5.31
2011-06-19 04:00,17.89,143.9,11.76,10.55,-14.45
2011-06-19 05:00,16.42,178.0,11.66,0.58,-16.41
2011-06-19 06:00,28.74,206.5,11.60,-12.81,-25.73
2011-06-19 07:00,26.40,217.7,11.69,-16.15,-20.88
2011-06-19 08:00,25.81,195.6,11.76,-6.93,-24.86
2011-06-19 09:00,19.94,162.2,11.79,6.11,-18.99
2011-06-19 10:00,23.17,148.1,11.82,12.24,-19.67
2011-06-19 11:00,21.12,145.3,11.76,12.02,-17.36
2011-06-19 12:00,21.12,84.1,11.82,21.01,2.17
2011-06-19 13:00,24.05,90.1,11.88,24.05,-0.04
2011-06-19 14:00,34.32,67.2,11.91,31.64,13.28
2011-06-19 15:00,36.08,71.5,11.98,34.20,11.47
2011-06-19 16:00,31.09,94.0,11.98,31.02,-2.15
2011-06-19 17:00,24.05,121.4,12.10,20.53,-12.52
2011-06-19 18:00,22.88,155.1,12.29,9.62,-20.76
2011-06-19 19:00,34.61,169.9,12.48,6.07,-34.07
2011-06-19 20:00,34.32,172.0,12.42,4.77,-33.98
2011-06-19 21:00,33.73,165.3,12.13,8.54,-32.63
2011-06-19 22:00,34.90,152.7,11.88,16.02,-31.01
2011-06-19 23:00,22.29,139.7,11.47,14.43,-16.99
2011-06-20 00:00,17.60,125.2,11.31,14.37,-10.16
2011-06-20 01:00,20.24,91.1,11.31,20.23,-0.40
2011-06-20 02:00,23.76,63.4,11.60,21.24,10.65
2011-06-20 03:00,28.45,37.7,12.04,17.40,22.51
2011-06-20 04:00,23.76,44.0,12.20,16.51,17.08
2011-06-20 05:00,17.01,50.0,12.20,13.03,10.93
2011-06-20 06:00,17.01,117.9,12.10,15.04,-7.95
2011-06-20 07:00,14.96,155.1,11.94,6.29,-13.57
2011-06-20 08:00,28.16,173.4,11.98,3.23,-27.97
2011-06-20 09:00,29.04,167.1,11.76,6.49,-28.30
2011-06-20 10:00,33.14,164.3,10.94,8.98,-31.90
2011-06-20 11:00,27.57,169.2,10.75,5.17,-27.08
2011-06-20 12:00,29.04,176.6,10.87,1.73,-28.99
2011-06-20 13:00,32.26,205.1,11.03,-13.67,-29.23
2011-06-20 14:00,10.27,253.6,11.13,-9.85,-2.90
2011-06-20 15:00,18.18,336.2,11.16,-7.34,16.64
2011-06-20 16:00,14.96,347.4,11.25,-3.26,14.60
2011-06-20 17:00,23.46,38.4,11.69,14.58,18.39
2011-06-20 18:00,16.13,102.7,12.10,15.73,-3.56
2011-06-20 19:00,8.51,94.3,11.85,8.48,-0.64
2011-06-20 20:00,29.92,145.6,11.63,16.88,-24.70
2011-06-20 21:00,28.16,158.3,11.41,10.41,-26.16
2011-06-20 22:00,36.08,148.5,11.35,18.87,-30.75
2011-06-20 23:00,38.42,135.1,11.28,27.12,-27.21
2011-06-21 00:00,32.26,122.4,11.98,27.23,-17.30
2011-06-21 01:00,27.57,135.1,11.98,19.46,-19.53
2011-06-21 02:00,3.52,165.7,11.85,0.87,-3.41
2011-06-21 03:00,6.45,119.3,11.82,5.63,-3.16
2011-06-21 04:00,2.05,295.4,11.66,-1.85,0.88
2011-06-21 05:00,4.40,37.0,11.63,2.65,3.51
2011-06-21 06:00,12.32,264.1,11.63,-12.25,-1.26
2011-06-21 07:00,14.96,275.4,11.69,-14.89,1.40
2011-06-21 08:00,9.97,234.9,11.69,-8.16,-5.73
2011-06-21 09:00,19.36,193.5,11.63,-4.51,-18.83
2011-06-21 10:00,24.34,185.4,11.47,-2.28,-24.24
2011-06-21 11:00,9.39,186.8,11.44,-1.11,-9.32
2011-06-21 12:00,1.76,65.8,11.47,1.61,0.72
2011-06-21 13:00,14.37,50.7,11.50,11.12,9.10
2011-06-21 14:00,31.09,36.3,11.60,18.40,25.06
2011-06-21 15:00,25.22,63.7,11.69,22.62,11.17
2011-06-21 16:00,32.26,53.9,11.72,26.06,19.02
2011-06-21 17:00,25.22,73.2,11.82,24.15,7.29
2011-06-21 18:00,19.06,75.7,11.82,18.47,4.72
2011-06-21 19:00,18.18,142.1,11.88,11.16,-14.35
2011-06-21 20:00,28.16,167.4,11.85,6.12,-27.48
2011-06-21 21:00,33.14,198.4,12.01,-10.45,-31.45
2011-06-21 22:00,47.51,193.5,11.98,-11.06,-46.21
2011-06-21 23:00,36.08,186.1,11.85,-3.82,-35.87
2011-06-22 00:00,24.64,188.9,11.63,-3.81,-24.34
2011-06-22 01:00,17.01,175.5,11.72,1.33,-16.96
2011-06-22 02:00,2.35,260.3,11.44,-2.31,-0.40
2011-06-22 03:00,12.32,30.3,11.69,6.22,10.63
2011-06-22 04:00,18.77,37.0,11.94,11.30,14.99
2011-06-22 05:00,21.70,39.8,12.48,13.90,16.67
2011-06-22 06:00,13.79,57.4,12.61,11.61,7.43
2011-06-22 07:00,13.49,104.2,12.51,13.08,-3.30
2011-06-22 08:00,17.89,120.7,11.98,15.39,-9.13
2011-06-22 09:00,22.58,154.4,12.17,9.75,-20.37
2011-06-22 17:00,20.82,38.8,11.50,13.04,16.24
2011-06-22 18:00,35.78,24.0,12.39,14.55,32.69
2011-06-22 19:00,30.50,37.3,12.95,18.51,24.25
2011-06-22 20:00,14.66,74.6,12.39,14.14,3.89
2011-06-22 21:00,14.96,112.9,12.54,13.77,-5.83
2011-06-22 22:00,20.24,145.3,12.57,11.52,-16.64
2011-06-22 23:00,25.52,148.8,12.61,13.22,-21.83
2011-06-23 00:00,26.69,133.7,12.92,19.30,-18.44
2011-06-23 01:00,22.29,143.2,12.57,13.36,-17.84
2011-06-23 02:00,12.03,128.4,12.07,9.42,-7.47
2011-06-23 03:00,7.63,83.8,12.20,7.58,0.83
2011-06-23 04:00,15.54,35.9,12.13,9.12,12.59
2011-06-23 05:00,33.73,19.8,12.57,11.41,31.74
2011-06-23 06:00,22.00,15.2,12.54,5.77,21.23
2011-06-23 07:00,36.66,7.1,12.48,4.54,36.38
2011-06-23 08:00,26.40,18.0,12.61,8.16,25.10
2011-06-23 09:00,21.12,27.5,12.57,9.75,18.73
2011-06-23 10:00,16.13,110.8,12.54,15.08,-5.74
2011-06-23 11:00,17.89,122.1,12.35,15.16,-9.50
2011-06-23 12:00,21.12,132.6,12.07,15.54,-14.30
2011-06-23 13:00,29.04,135.1,11.16,20.50,-20.57
2011-06-23 14:00,19.94,130.9,11.91,15.08,-13.05
2011-06-23 15:00,15.25,120.0,11.82,13.21,-7.62
2011-06-23 16:00,10.27,90.4,12.07,10.27,-0.08
2011-06-23 17:00,10.85,5.0,12.04,0.95,10.81
2011-06-23 18:00,16.42,320.4,11.54,-10.47,12.65
2011-06-23 19:00,38.13,336.6,12.20,-15.17,34.98
2011-06-23 20:00,26.40,351.3,12.29,-4.00,26.09
2011-06-23 21:00,4.99,353.4,12.45,-0.57,4.95
2011-06-23 22:00,6.45,293.3,12.32,-5.93,2.55
2011-06-23 23:00,17.60,173.1,12.23,2.12,-17.47
2011-06-24 00:00,14.08,188.2,12.04,-2.00,-13.93
2011-06-24 01:00,6.16,49.0,11.98,4.65,4.04
2011-06-24 02:00,6.16,355.2,11.85,-0.52,6.14
2011-06-24 03:00,9.68,19.4,11.91,3.22,9.13
2011-06-24 04:00,24.34,22.6,11.76,9.35,22.48
2011-06-24 05:00,28.45,40.9,11.72,18.61,21.52
2011-06-24 06:00,20.24,51.8,11.69,15.90,12.52
2011-06-24 07:00,26.40,26.5,11.82,11.76,23.63
2011-06-24 08:00,21.41,35.2,11.91,12.35,17.49
2011-06-24 09:00,5.57,16.3,11.88,1.56,5.35
2011-06-24 10:00,14.66,198.0,11.85,-4.54,-13.94
2011-06-24 11:00,24.93,189.2,11.82,-4.00,-24.61
2011-06-24 12:00,45.46,210.0,11.79,-22.72,-39.38
2011-06-24 13:00,29.62,223.3,11.47,-20.33,-21.54
2011-06-24 14:00,20.24,258.9,11.38,-19.86,-3.91
2011-06-24 15:00,28.16,309.5,11.35,-21.73,17.91
2011-06-24 16:00,19.36,354.1,11.38,-1.99,19.26
2011-06-24 17:00,28.16,352.3,11.50,-3.75,27.91
2011-06-24 18:00,29.62,1.1,11.38,0.59,29.62
2011-06-24 19:00,37.84,355.9,11.57,-2.73,37.74
2011-06-24 20:00,39.89,2.9,11.72,2.01,39.84
2011-06-24 21:00,31.68,7.5,11.63,4.11,31.41